DW6277 Weather Reports


time (UTC)temp
F
wind
direction
speed
knots
gust
knots
rain 1hr
in
rain 24hr
in
rain mn
in
humidity
%
barometer
mb
20260831040138 69 91 1.7 5.2 0.00 0.00 0.00 76 1028.5
20260831035134 69 72 2.6 5.2 0.00 0.00 0.00 74 1028.6
20260831034101 69 51 1.7 5.2 0.00 0.00 0.00 74 1028.7
20260831031926 69 141 1.7 4.3 0.00 0.00 0.00 75 1028.8
20260831030855 69 38 1.7 5.2 0.00 0.00 0.00 76 1029.0
20260831025905 69 68 1.7 5.2 0.00 0.00 0.00 75 1029.1
20260831023809 69 39 1.7 7.0 0.00 0.00 0.00 75 1029.6
20260831021840 69 48 1.7 5.2 0.00 0.00 0.00 76 1029.9
20260831020815 69 34 0.9 6.1 0.00 0.00 0.00 75 1030.0
20260831015831 69 101 1.7 6.1 0.00 0.00 0.00 75 1030.2
20260831014759 69 53 1.7 5.2 0.00 0.00 0.00 74 1030.3
20260831012616 69 91 0.9 4.3 0.00 0.00 0.00 75 1030.6
20260831011633 70 93 1.7 4.3 0.00 0.00 0.00 74 1030.7
20260831010622 71 96 0.0 3.5 0.00 0.00 0.00 72 1030.8
20260831005617 71 298 0.0 4.3 0.00 0.00 0.00 71 1030.8
20260831004548 69 33 0.9 4.3 0.00 0.00 0.00 73 1031.0
20260831003546 69 41 0.9 5.2 0.00 0.00 0.00 74 1031.0
20260831002558 69 308 0.0 5.2 0.00 0.00 0.00 75 1031.0
20260831001546 69 14 0.9 4.3 0.00 0.00 0.00 77 1030.9
20260831000552 68 315 0.9 5.2 0.00 0.00 0.00 78 1031.0
20260830235527 67 30 0.9 5.2 0.00 0.00 0.00 79 1031.0
20260830233408 67 309 0.0 4.3 0.00 0.00 0.00 79 1030.9
20260830231311 64 339 0.9 4.3 0.00 0.00 0.00 83 1031.0
20260830230317 63 324 0.9 4.3 0.00 0.00 0.00 86 1030.9
20260830225332 62 324 0.9 4.3 0.00 0.00 0.00 88 1030.9
20260830222159 57 304 0.9 3.5 0.00 0.00 0.00 93 1030.8
20260830220031 55 315 0.9 4.3 0.00 0.00 0.00 95 1030.7
20260830215032 54 321 0.9 5.2 0.00 0.00 0.00 96 1030.7
20260830214012 53 311 1.7 5.2 0.00 0.00 0.00 96 1030.7
20260830212946 52 315 2.6 5.2 0.00 0.00 0.00 96 1030.6
20260830212009 52 326 1.7 5.2 0.00 0.00 0.00 96 1030.5
20260830211022 51 308 0.9 3.5 0.00 0.00 0.00 96 1030.4
20260830201449 49 321 0.9 3.5 0.00 0.00 0.00 95 1029.8
20260830195316 50 319 0.9 4.3 0.00 0.00 0.00 95 1029.5
20260830194241 50 323 1.7 3.5 0.00 0.00 0.00 95 1029.4
20260830193207 50 323 0.9 3.5 0.00 0.00 0.00 95 1029.3
20260830192146 50 332 1.7 3.5 0.00 0.00 0.00 95 1029.2
20260830191119 51 316 0.9 3.5 0.00 0.00 0.00 95 1029.1
20260830190057 51 319 0.9 2.6 0.00 0.00 0.00 94 1029.1
20260830185030 51 314 0.9 1.7 0.00 0.00 0.00 94 1029.2
20260830184010 51 312 0.9 2.6 0.00 0.00 0.00 94 1029.2
20260830182941 51 319 0.9 2.6 0.00 0.00 0.00 94 1029.2
20260830182002 51 319 0.9 1.7 0.00 0.00 0.00 94 1029.2
20260830181008 51 321 0.9 1.7 0.00 0.00 0.00 93 1029.2
20260830180017 52 49 0.0 1.7 0.00 0.00 0.00 93 1029.2
20260830174959 52 49 0.0 1.7 0.00 0.00 0.00 93 1029.2
20260830172753 52 49 0.0 1.7 0.00 0.00 0.00 92 1029.3
20260830171732 52 49 0.0 1.7 0.00 0.00 0.00 92 1029.2
20260830170736 53 49 0.0 0.9 0.00 0.00 0.00 92 1029.3
20260830165751 53 49 0.0 0.0 0.00 0.00 0.00 91 1029.3
20260830164748 54 49 0.0 0.9 0.00 0.00 0.00 90 1029.3
20260830162619 57 68 0.0 0.0 0.00 0.00 0.00 91 1029.3
20260830161555 57 68 0.0 0.0 0.00 0.00 0.00 92 1029.2
20260830155434 56 68 0.0 0.0 0.00 0.00 0.00 91 1029.3
20260830154410 56 68 0.0 0.9 0.00 0.00 0.00 91 1029.4
20260830153347 56 68 0.0 0.9 0.00 0.00 0.00 90 1029.5
20260830152406 57 68 0.0 0.0 0.00 0.00 0.00 90 1029.5
20260830150251 57 68 0.0 0.9 0.00 0.00 0.00 91 1029.6
20260830142957 56 68 0.0 0.9 0.00 0.00 0.00 91 1029.6
20260830141942 57 68 0.0 0.9 0.00 0.00 0.00 91 1029.7
20260830140919 57 68 0.0 1.7 0.00 0.00 0.00 92 1029.5
20260830135913 56 68 0.0 1.7 0.00 0.00 0.00 92 1029.6
20260830134904 56 68 0.0 1.7 0.00 0.00 0.00 92 1029.6
20260830133914 55 68 0.0 0.0 0.00 0.00 0.00 91 1029.7
20260830132901 55 68 0.0 0.0 0.00 0.00 0.00 91 1029.6
20260830125610 57 68 0.0 0.0 0.00 0.00 0.00 90 1029.7
20260830124541 57 68 0.0 0.0 0.00 0.00 0.00 90 1029.7
20260830123533 58 68 0.0 1.7 0.00 0.00 0.00 91 1029.8
20260830122459 58 68 0.0 1.7 0.00 0.00 0.00 91 1029.7
20260830115247 57 68 0.0 0.0 0.00 0.00 0.00 91 1029.5
20260830114228 57 68 0.0 0.0 0.00 0.00 0.00 90 1029.5
20260830113249 57 68 0.0 0.0 0.00 0.00 0.00 90 1029.5
20260830112258 58 68 0.0 0.0 0.00 0.00 0.00 90 1029.6
20260830111227 57 68 0.0 0.0 0.00 0.00 0.00 90 1029.5
20260830110251 57 68 0.0 0.0 0.00 0.00 0.00 89 1029.5
20260830105251 58 68 0.0 0.0 0.00 0.00 0.00 88 1029.4
20260830104224 58 68 0.0 0.9 0.00 0.00 0.00 87 1029.4
20260830103229 59 68 0.0 0.9 0.00 0.00 0.00 86 1029.4
20260830102249 59 68 0.0 0.9 0.00 0.00 0.00 86 1029.4
20260830101246 60 68 0.0 0.0 0.00 0.00 0.00 85 1029.3
20260830100230 60 68 0.0 0.0 0.00 0.00 0.00 84 1029.2
20260830095205 61 68 0.0 0.0 0.00 0.00 0.00 84 1029.2
20260830094146 61 68 0.0 0.0 0.00 0.00 0.00 85 1029.0
20260830093155 61 68 0.0 0.0 0.00 0.00 0.00 84 1029.1
20260830091132 61 68 0.0 0.0 0.00 0.00 0.00 83 1029.0
20260830090113 61 68 0.0 0.0 0.00 0.00 0.00 83 1028.9
20260830085102 62 68 0.0 0.0 0.00 0.00 0.00 82 1028.8
20260830084039 62 68 0.0 0.0 0.00 0.00 0.00 82 1028.7
20260830081936 63 68 0.0 0.0 0.00 0.00 0.00 82 1028.7
20260830080956 63 68 0.0 0.0 0.00 0.00 0.00 82 1028.6
20260830074823 63 68 0.0 0.0 0.00 0.00 0.00 82 1028.4
20260830072714 64 68 0.0 0.0 0.00 0.00 0.00 81 1028.2
20260830071737 64 68 0.0 0.9 0.00 0.00 0.00 80 1028.2
20260830070734 64 66 0.0 0.0 0.00 0.00 0.00 80 1028.1
20260830064607 65 65 0.0 2.6 0.00 0.00 0.00 79 1028.1
20260830063604 65 139 0.0 3.5 0.00 0.00 0.00 78 1028.1
20260830062543 65 135 0.9 3.5 0.00 0.00 0.00 78 1028.1
20260830061515 66 117 0.9 2.6 0.00 0.00 0.00 77 1028.0
20260830060518 66 137 0.9 3.5 0.00 0.00 0.00 78 1028.0
20260830055503 66 124 0.9 3.5 0.00 0.00 0.00 78 1028.0
20260830054448 66 103 0.0 4.3 0.00 0.00 0.00 77 1028.0
20260830052253 67 113 0.9 3.5 0.00 0.00 0.00 78 1028.2
20260830050206 67 101 0.9 3.5 0.00 0.00 0.00 78 1028.3
20260830045159 66 113 1.7 5.2 0.00 0.00 0.00 79 1028.4
20260830044221 66 135 1.7 5.2 0.00 0.00 0.00 78 1028.4
20260830043232 66 103 1.7 5.2 0.00 0.01 0.00 78 1028.4
20260830042225 67 127 1.7 4.3 0.00 0.01 0.00 76 1028.3